Onalaska, WI

2:55 AM CDT on August 31, 2016 (GMT -0500)
La Crosse Municipal

Weather History for KLSE - March, 2014

Change the Weather History Date:

Tuesday, March 25, 2014

  Actual Average Record
Temperature  
Mean Temperature 19 °F 39 °F  
Max Temperature 25 °F 48 °F 83 °F (2007)
Min Temperature 13 °F 29 °F 3 °F (1940)
Degree Days  
Heating Degree Days 46 26  
Month to date heating degree days 1008 796  
Since 1 July heating degree days 7198 6305  
Cooling Degree Days 0 0  
Month to date cooling degree days 0 0  
Year to date cooling degree days 0 0  
Moisture  
Dew Point 3 °F    
Average Humidity 52    
Maximum Humidity 67    
Minimum Humidity 36    
Precipitation  
Precipitation T in 0.08 in 1.25 in (1945)
Month to date precipitation 0.67 1.56  
Year to date precipitation 3.03 3.73  
Snow  
Snow T in 0.10 in 6.20 in (1964)
Month to date snowfall 5.7 6.2  
Since 1 July snowfall 46.6 40.7  
Snow Depth 1.00 in    
Sea Level Pressure  
Sea Level Pressure 30.26 in    
Wind  
Wind Speed 13 mph (NW)    
Max Wind Speed 25 mph    
Max Gust Speed 32 mph    
Visibility 10 miles    
Events      
T = Trace of Precipitation, MM = Missing Value Source: NWS Daily Summary

Daily Weather History Graph

Daily Weather History Graph

Search for Another Location

Airport or City:

Trip Planner

Search our weather history database for the weather conditions in past years. The results will help you decide how hot, cold, wet, or windy it might be!

Date:

Astronomy

Mar. 25, 2014 Rise Set
Actual Time 6:59 AM CDT 7:23 PM CDT
Civil Twilight 6:30 AM CDT 7:52 PM CDT
Nautical Twilight 5:56 AM CDT 8:26 PM CDT
Astronomical Twilight 5:21 AM CDT 9:01 PM CDT
Moon 3:31 AM CDT (3/25) 1:44 PM CDT (3/25)
Length of Visible Light 13h 22m
Length of Day
12h 24m
Waning Crescent, 32% of the Moon is Illuminated
Mar 25
Waning Crescent
Mar 30
New
Apr 7
First Quarter
Apr 15
Full
Apr 22
Last Quarter

Hourly Weather History & Observations

Time (CDT) Temp. Windchill Dew Point Humidity Pressure Visibility Wind Dir Wind Speed Gust Speed Precip Events Conditions
12:53 AM 19.9 °F 12.1 °F 7.0 °F 57% 30.12 in 10.0 mi WNW 5.8 mph - N/A   Clear
5:53 AM 15.1 °F -2.5 °F 1.0 °F 54% 30.18 in 10.0 mi NNW 20.7 mph - N/A   Clear
6:53 AM 14.0 °F 1.2 °F 1.0 °F 56% 30.22 in 10.0 mi NNW 10.4 mph - N/A   Clear
7:53 AM 14.0 °F -4.7 °F 1.0 °F 56% 30.25 in 10.0 mi NNW 23.0 mph - N/A   Clear
8:53 AM 14.0 °F -3.9 °F -0.9 °F 52% 30.27 in 10.0 mi NW 20.7 mph - N/A   Clear
9:53 AM 15.1 °F -2.0 °F 1.0 °F 54% 30.29 in 10.0 mi NNW 19.6 mph - N/A   Clear
10:53 AM 17.1 °F 1.5 °F 1.9 °F 52% 30.29 in 10.0 mi NNW 17.3 mph - N/A   Clear
12:53 PM 21.0 °F 8.1 °F 3.9 °F 48% 30.30 in 10.0 mi NW 13.8 mph 23.0 mph N/A   Clear
1:53 PM 21.9 °F 8.7 °F 1.9 °F 42% 30.29 in 10.0 mi NW 15.0 mph 25.3 mph N/A   Clear
2:53 PM 24.1 °F 9.8 °F 1.0 °F 37% 30.27 in 10.0 mi NNW 19.6 mph 28.8 mph N/A   Clear
3:53 PM 23.0 °F 8.3 °F 1.0 °F 39% 30.27 in 10.0 mi NNW 19.6 mph - N/A   Clear
4:53 PM 23.0 °F 12.4 °F 3.9 °F 44% 30.27 in 10.0 mi WNW 10.4 mph - N/A   Mostly Cloudy
5:53 PM 21.9 °F 9.2 °F 3.0 °F 44% 30.27 in 10.0 mi NW 13.8 mph 21.9 mph N/A   Mostly Cloudy
6:53 PM 21.9 °F 9.8 °F 3.0 °F 44% 30.27 in 10.0 mi NW 12.7 mph - N/A   Mostly Cloudy
7:53 PM 21.0 °F 12.4 °F 5.0 °F 50% 30.27 in 10.0 mi WNW 6.9 mph - N/A   Scattered Clouds
8:53 PM 21.0 °F 13.4 °F 5.0 °F 50% 30.27 in 10.0 mi WNW 5.8 mph - N/A   Overcast
9:53 PM 21.0 °F 16.2 °F 6.1 °F 53% 30.28 in 10.0 mi West 3.5 mph - N/A   Overcast
10:53 PM 19.9 °F 14.9 °F 7.0 °F 57% 30.28 in 10.0 mi WSW 3.5 mph - N/A   Overcast
11:53 PM 17.1 °F 8.7 °F 8.1 °F 68% 30.27 in 10.0 mi SW 5.8 mph - N/A   Clear